Year,Month,Day,Hour,Minute,Value (Times are PST for temperature in C)
2009,07,25,00,00,14.70
2009,07,25,00,01,14.70
2009,07,25,00,02,14.80
2009,07,25,00,03,14.80
2009,07,25,00,04,14.80
2009,07,25,00,05,14.90
2009,07,25,00,06,14.90
2009,07,25,00,07,14.90
2009,07,25,00,08,14.90
2009,07,25,00,09,14.90
2009,07,25,00,10,15.00
2009,07,25,00,11,15.00
2009,07,25,00,12,15.00
2009,07,25,00,13,15.10
2009,07,25,00,14,15.10
2009,07,25,00,15,15.10
2009,07,25,00,16,15.10
2009,07,25,00,17,15.10
2009,07,25,00,18,15.20
2009,07,25,00,19,15.30
2009,07,25,00,20,15.30
2009,07,25,00,21,15.30
2009,07,25,00,22,15.40
2009,07,25,00,23,15.40
2009,07,25,00,24,15.50
2009,07,25,00,25,15.50
2009,07,25,00,26,15.50
2009,07,25,00,27,15.60
2009,07,25,00,28,15.60
2009,07,25,00,29,15.60
2009,07,25,00,30,15.70
2009,07,25,00,31,15.70
2009,07,25,00,32,15.80
2009,07,25,00,33,15.80
2009,07,25,00,34,15.90
2009,07,25,00,35,15.90
2009,07,25,00,36,16.00
2009,07,25,00,37,16.00
2009,07,25,00,38,16.10
2009,07,25,00,39,16.20
2009,07,25,00,40,16.20
2009,07,25,00,41,16.30
2009,07,25,00,42,16.40
2009,07,25,00,43,16.50
2009,07,25,00,44,16.60
2009,07,25,00,45,16.60
2009,07,25,00,46,16.70
2009,07,25,00,47,16.70
2009,07,25,00,48,16.80
2009,07,25,00,49,16.80
2009,07,25,00,50,16.90
2009,07,25,00,51,16.90
2009,07,25,00,52,17.00
2009,07,25,00,53,17.00
2009,07,25,00,54,17.10
2009,07,25,00,55,17.10
2009,07,25,00,56,17.20
2009,07,25,00,57,17.20
2009,07,25,00,58,17.30
2009,07,25,00,59,17.30
2009,07,25,01,00,17.40
2009,07,25,01,01,17.40
2009,07,25,01,02,17.50
2009,07,25,01,03,17.50
2009,07,25,01,04,17.60
2009,07,25,01,05,17.70
2009,07,25,01,06,17.70
2009,07,25,01,07,17.70
2009,07,25,01,08,17.70
2009,07,25,01,09,17.80
2009,07,25,01,10,17.80
2009,07,25,01,11,17.80
2009,07,25,01,12,17.80
2009,07,25,01,13,17.80
2009,07,25,01,14,17.80
2009,07,25,01,15,17.80
2009,07,25,01,16,17.80
2009,07,25,01,17,17.80
2009,07,25,01,18,17.80
2009,07,25,01,19,17.70
2009,07,25,01,20,17.70
2009,07,25,01,21,17.70
2009,07,25,01,22,17.70
2009,07,25,01,23,17.70
2009,07,25,01,24,17.60
2009,07,25,01,25,17.60
2009,07,25,01,26,17.60
2009,07,25,01,27,17.60
2009,07,25,01,28,17.60
2009,07,25,01,29,17.60
2009,07,25,01,30,17.50
2009,07,25,01,31,17.40
2009,07,25,01,32,17.40
2009,07,25,01,33,17.30
2009,07,25,01,34,17.20
2009,07,25,01,35,17.10
2009,07,25,01,36,17.00
2009,07,25,01,37,16.90
2009,07,25,01,38,16.80
2009,07,25,01,39,16.80
2009,07,25,01,40,16.70
2009,07,25,01,41,16.70
2009,07,25,01,42,16.60
2009,07,25,01,43,16.60
2009,07,25,01,44,16.50
2009,07,25,01,45,16.50
2009,07,25,01,46,16.40
2009,07,25,01,47,16.40
2009,07,25,01,48,16.40
2009,07,25,01,49,16.40
2009,07,25,01,50,16.30
2009,07,25,01,51,16.30
2009,07,25,01,52,16.30
2009,07,25,01,53,16.20
2009,07,25,01,54,16.20
2009,07,25,01,55,16.20
2009,07,25,01,56,16.20
2009,07,25,01,57,16.20
2009,07,25,01,58,16.10
2009,07,25,01,59,16.10
2009,07,25,02,00,16.10
2009,07,25,02,01,16.10
2009,07,25,02,02,16.10
2009,07,25,02,03,16.10
2009,07,25,02,04,16.00
2009,07,25,02,05,16.00
2009,07,25,02,06,16.00
2009,07,25,02,07,16.00
2009,07,25,02,08,16.00
2009,07,25,02,09,16.00
2009,07,25,02,10,16.00
2009,07,25,02,11,16.00
2009,07,25,02,12,15.90
2009,07,25,02,13,15.90
2009,07,25,02,14,15.90
2009,07,25,02,15,15.90
2009,07,25,02,16,15.80
2009,07,25,02,17,15.80
2009,07,25,02,18,15.80
2009,07,25,02,19,15.70
2009,07,25,02,20,15.60
2009,07,25,02,21,15.60
2009,07,25,02,22,15.50
2009,07,25,02,23,15.50
2009,07,25,02,24,15.40
2009,07,25,02,25,15.30
2009,07,25,02,26,15.20
2009,07,25,02,27,15.10
2009,07,25,02,28,15.00
2009,07,25,02,29,14.90
2009,07,25,02,30,14.80
2009,07,25,02,31,14.70
2009,07,25,02,32,14.60
2009,07,25,02,33,14.50
2009,07,25,02,34,14.40
2009,07,25,02,35,14.30
2009,07,25,02,36,14.20
2009,07,25,02,37,14.10
2009,07,25,02,38,14.00
2009,07,25,02,39,13.90
2009,07,25,02,40,13.90
2009,07,25,02,41,13.80
2009,07,25,02,42,13.80
2009,07,25,02,43,13.70
2009,07,25,02,44,13.70
2009,07,25,02,45,13.60
2009,07,25,02,46,13.60
2009,07,25,02,47,13.50
2009,07,25,02,48,13.50
2009,07,25,02,49,13.40
2009,07,25,02,50,13.40
2009,07,25,02,51,13.30
2009,07,25,02,52,13.30
2009,07,25,02,53,13.30
2009,07,25,02,54,13.30
2009,07,25,02,55,13.30
2009,07,25,02,56,13.20
2009,07,25,02,57,13.20
2009,07,25,02,58,13.20
2009,07,25,02,59,13.20
2009,07,25,03,00,13.20
2009,07,25,03,01,13.20
2009,07,25,03,02,13.20
2009,07,25,03,03,13.20
2009,07,25,03,04,13.20
2009,07,25,03,05,13.20
2009,07,25,03,06,13.20
2009,07,25,03,07,13.20
2009,07,25,03,08,13.20
2009,07,25,03,09,13.20
2009,07,25,03,10,13.10
2009,07,25,03,11,13.10
2009,07,25,03,12,13.10
2009,07,25,03,13,13.10
2009,07,25,03,14,13.10
2009,07,25,03,15,13.20
2009,07,25,03,16,13.20
2009,07,25,03,17,13.20
2009,07,25,03,18,13.20
2009,07,25,03,19,13.20
2009,07,25,03,20,13.20
2009,07,25,03,21,13.20
2009,07,25,03,22,13.20
2009,07,25,03,23,13.20
2009,07,25,03,24,13.20
2009,07,25,03,25,13.20
2009,07,25,03,26,13.20
2009,07,25,03,27,13.20
2009,07,25,03,28,13.30
2009,07,25,03,29,13.30
2009,07,25,03,30,13.30
2009,07,25,03,31,13.30
2009,07,25,03,32,13.30
2009,07,25,03,33,13.30
2009,07,25,03,34,13.30
2009,07,25,03,35,13.30
2009,07,25,03,36,13.30
2009,07,25,03,37,13.40
2009,07,25,03,38,13.40
2009,07,25,03,39,13.40
2009,07,25,03,40,13.40
2009,07,25,03,41,13.40
2009,07,25,03,42,13.50
2009,07,25,03,43,13.50
2009,07,25,03,44,13.50
2009,07,25,03,45,13.50
2009,07,25,03,46,13.60
2009,07,25,03,47,13.60
2009,07,25,03,48,13.60
2009,07,25,03,49,13.60
2009,07,25,03,50,13.60
2009,07,25,03,51,13.60
2009,07,25,03,52,13.60
2009,07,25,03,53,13.70
2009,07,25,03,54,13.70
2009,07,25,03,55,13.70
2009,07,25,03,56,13.70
2009,07,25,03,57,13.70
2009,07,25,03,58,13.70
2009,07,25,03,59,13.70
2009,07,25,04,00,13.80
2009,07,25,04,01,13.80
2009,07,25,04,02,13.80
2009,07,25,04,03,13.80
2009,07,25,04,04,13.80
2009,07,25,04,05,13.80
2009,07,25,04,06,13.80
2009,07,25,04,07,13.80
2009,07,25,04,08,13.80
2009,07,25,04,09,13.80
2009,07,25,04,10,13.80
2009,07,25,04,11,13.80
2009,07,25,04,12,13.80
2009,07,25,04,13,13.80
2009,07,25,04,14,13.80
2009,07,25,04,15,13.80
2009,07,25,04,16,13.80
2009,07,25,04,17,13.80
2009,07,25,04,18,13.80
2009,07,25,04,19,13.80
2009,07,25,04,20,13.90
2009,07,25,04,21,13.90
2009,07,25,04,22,13.90
2009,07,25,04,23,13.90
2009,07,25,04,24,13.90
2009,07,25,04,25,13.90
2009,07,25,04,26,13.90
2009,07,25,04,27,13.90
2009,07,25,04,28,14.00
2009,07,25,04,29,14.00
2009,07,25,04,30,14.00
2009,07,25,04,31,14.00
2009,07,25,04,32,14.00
2009,07,25,04,33,14.00
2009,07,25,04,34,14.00
2009,07,25,04,35,14.00
2009,07,25,04,36,14.00
2009,07,25,04,37,14.00
2009,07,25,04,38,14.00
2009,07,25,04,39,14.00
2009,07,25,04,40,14.00
2009,07,25,04,41,13.90
2009,07,25,04,42,13.90
2009,07,25,04,43,13.90
2009,07,25,04,44,13.90
2009,07,25,04,45,13.90
2009,07,25,04,46,13.90
2009,07,25,04,47,13.90
2009,07,25,04,48,13.90
2009,07,25,04,49,13.90
2009,07,25,04,50,13.90
2009,07,25,04,51,13.90
2009,07,25,04,52,13.90
2009,07,25,04,53,13.90
2009,07,25,04,54,13.90
2009,07,25,04,55,13.90
2009,07,25,04,56,13.90
2009,07,25,04,57,13.90
2009,07,25,04,58,14.00
2009,07,25,04,59,14.00
2009,07,25,05,00,14.00
2009,07,25,05,01,14.00
2009,07,25,05,02,14.00
2009,07,25,05,03,14.00
2009,07,25,05,04,14.00
2009,07,25,05,05,14.00
2009,07,25,05,06,14.00
2009,07,25,05,07,14.00
2009,07,25,05,08,14.00
2009,07,25,05,09,14.00
2009,07,25,05,10,14.10
2009,07,25,05,11,14.10
2009,07,25,05,12,14.10
2009,07,25,05,13,14.20
2009,07,25,05,14,14.20
2009,07,25,05,15,14.20
2009,07,25,05,16,14.30
2009,07,25,05,17,14.30
2009,07,25,05,18,14.30
2009,07,25,05,19,14.30
2009,07,25,05,20,14.40
2009,07,25,05,21,14.40
2009,07,25,05,22,14.40
2009,07,25,05,23,14.40
2009,07,25,05,24,14.40
2009,07,25,05,25,14.40
2009,07,25,05,26,14.40
2009,07,25,05,27,14.40
2009,07,25,05,28,14.40
2009,07,25,05,29,14.50
2009,07,25,05,30,14.50
2009,07,25,05,31,14.50
2009,07,25,05,32,14.50
2009,07,25,05,33,14.50
2009,07,25,05,34,14.50
2009,07,25,05,35,14.50
2009,07,25,05,36,14.40
2009,07,25,05,37,14.40
2009,07,25,05,38,14.40
2009,07,25,05,39,14.40
2009,07,25,05,40,14.40
2009,07,25,05,41,14.40
2009,07,25,05,42,14.30
2009,07,25,05,43,14.30
2009,07,25,05,44,14.30
2009,07,25,05,45,14.40
2009,07,25,05,46,14.40
2009,07,25,05,47,14.40
2009,07,25,05,48,14.40
2009,07,25,05,49,14.40
2009,07,25,05,50,14.40
2009,07,25,05,51,14.40
2009,07,25,05,52,14.40
2009,07,25,05,53,14.40
2009,07,25,05,54,14.50
2009,07,25,05,55,14.50
2009,07,25,05,56,14.50
2009,07,25,05,57,14.50
2009,07,25,05,58,14.60
2009,07,25,05,59,14.60
2009,07,25,06,00,14.60
2009,07,25,06,01,14.60
2009,07,25,06,02,14.60
2009,07,25,06,03,14.60
2009,07,25,06,04,14.70
2009,07,25,06,05,14.70
2009,07,25,06,06,14.70
2009,07,25,06,07,14.70
2009,07,25,06,08,14.70
2009,07,25,06,09,14.70
2009,07,25,06,10,14.70
2009,07,25,06,11,14.70
2009,07,25,06,12,14.70
2009,07,25,06,13,14.70
2009,07,25,06,14,14.80
2009,07,25,06,15,14.80
2009,07,25,06,16,14.80
2009,07,25,06,17,14.80
2009,07,25,06,18,14.80
2009,07,25,06,19,14.80
2009,07,25,06,20,14.80
2009,07,25,06,21,14.80
2009,07,25,06,22,14.90
2009,07,25,06,23,14.90
2009,07,25,06,24,14.90
2009,07,25,06,25,14.90
2009,07,25,06,26,14.90
2009,07,25,06,27,14.90
2009,07,25,06,28,15.00
2009,07,25,06,29,15.00
2009,07,25,06,30,15.00
2009,07,25,06,31,15.10
2009,07,25,06,32,15.10
2009,07,25,06,33,15.10
2009,07,25,06,34,15.10
2009,07,25,06,35,15.10
2009,07,25,06,36,15.10
2009,07,25,06,37,15.20
2009,07,25,06,38,15.20
2009,07,25,06,39,15.20
2009,07,25,06,40,15.20
2009,07,25,06,41,15.20
2009,07,25,06,42,15.20
2009,07,25,06,43,15.20
2009,07,25,06,44,15.20
2009,07,25,06,45,15.20
2009,07,25,06,46,15.20
2009,07,25,06,47,15.20
2009,07,25,06,48,15.20
2009,07,25,06,49,15.20
2009,07,25,06,50,15.20
2009,07,25,06,51,15.20
2009,07,25,06,52,15.20
2009,07,25,06,53,15.20
2009,07,25,06,54,15.20
2009,07,25,06,55,15.20
2009,07,25,06,56,15.30
2009,07,25,06,57,15.30
2009,07,25,06,58,15.30
2009,07,25,06,59,15.30
2009,07,25,07,00,15.40
2009,07,25,07,01,15.40
2009,07,25,07,02,15.50
2009,07,25,07,03,15.50
2009,07,25,07,04,15.60
2009,07,25,07,05,15.60
2009,07,25,07,06,15.70
2009,07,25,07,07,15.70
2009,07,25,07,08,15.80
2009,07,25,07,09,15.80
2009,07,25,07,10,15.80
2009,07,25,07,11,15.90
2009,07,25,07,12,16.00
2009,07,25,07,13,16.00
2009,07,25,07,14,16.10
2009,07,25,07,15,16.10
2009,07,25,07,16,16.20
2009,07,25,07,17,16.20
2009,07,25,07,18,16.20
2009,07,25,07,19,16.20
2009,07,25,07,20,16.30
2009,07,25,07,21,16.30
2009,07,25,07,22,16.30
2009,07,25,07,23,16.40
2009,07,25,07,24,16.40
2009,07,25,07,25,16.40
2009,07,25,07,26,16.40
2009,07,25,07,27,16.50
2009,07,25,07,28,16.50
2009,07,25,07,29,16.50
2009,07,25,07,30,16.60
2009,07,25,07,31,16.60
2009,07,25,07,32,16.60
2009,07,25,07,33,16.60
2009,07,25,07,34,16.60
2009,07,25,07,35,16.70
2009,07,25,07,36,16.70
2009,07,25,07,37,16.70
2009,07,25,07,38,16.70
2009,07,25,07,39,16.80
2009,07,25,07,40,16.80
2009,07,25,07,41,16.90
2009,07,25,07,42,16.90
2009,07,25,07,43,17.00
2009,07,25,07,44,17.00
2009,07,25,07,45,17.10
2009,07,25,07,46,17.10
2009,07,25,07,47,17.20
2009,07,25,07,48,17.20
2009,07,25,07,49,17.30
2009,07,25,07,50,17.40
2009,07,25,07,51,17.40
2009,07,25,07,52,17.50
2009,07,25,07,53,17.60
2009,07,25,07,54,17.70
2009,07,25,07,55,17.80
2009,07,25,07,56,17.90
2009,07,25,07,57,18.00
2009,07,25,07,58,18.00
2009,07,25,07,59,18.10
2009,07,25,08,00,18.20
2009,07,25,08,01,18.30
2009,07,25,08,02,18.40
2009,07,25,08,03,18.50
2009,07,25,08,04,18.60
2009,07,25,08,05,18.60
2009,07,25,08,06,18.60
2009,07,25,08,07,18.60
2009,07,25,08,08,18.60
2009,07,25,08,09,18.60
2009,07,25,08,10,18.60
2009,07,25,08,11,18.60
2009,07,25,08,12,18.50
2009,07,25,08,13,18.50
2009,07,25,08,14,18.40
2009,07,25,08,15,18.40
2009,07,25,08,16,18.40
2009,07,25,08,17,18.40
2009,07,25,08,18,18.30
2009,07,25,08,19,18.30
2009,07,25,08,20,18.30
2009,07,25,08,21,18.30
2009,07,25,08,22,18.30
2009,07,25,08,23,18.30
2009,07,25,08,24,18.30
2009,07,25,08,25,18.30
2009,07,25,08,26,18.30
2009,07,25,08,27,18.30
2009,07,25,08,28,18.30
2009,07,25,08,29,18.30
2009,07,25,08,30,18.30
2009,07,25,08,31,18.30
2009,07,25,08,32,18.30
2009,07,25,08,33,18.30
2009,07,25,08,34,18.30
2009,07,25,08,35,18.30
2009,07,25,08,36,18.30
2009,07,25,08,37,18.40
2009,07,25,08,38,18.40
2009,07,25,08,39,18.50
2009,07,25,08,40,18.60
2009,07,25,08,41,18.70
2009,07,25,08,42,18.80
2009,07,25,08,43,19.00
2009,07,25,08,44,19.10
2009,07,25,08,45,19.20
2009,07,25,08,46,19.30
2009,07,25,08,47,19.40
2009,07,25,08,48,19.50
2009,07,25,08,49,19.60
2009,07,25,08,50,19.70
2009,07,25,08,51,19.70
2009,07,25,08,52,19.80
2009,07,25,08,53,19.80
2009,07,25,08,54,19.90
2009,07,25,08,55,19.90
2009,07,25,08,56,19.90
2009,07,25,08,57,20.00
2009,07,25,08,58,20.00
2009,07,25,08,59,20.10
2009,07,25,09,00,20.10
2009,07,25,09,01,20.10
2009,07,25,09,02,20.10
2009,07,25,09,03,20.10
2009,07,25,09,04,20.10
2009,07,25,09,05,20.10
2009,07,25,09,06,20.00
2009,07,25,09,07,20.00
2009,07,25,09,08,20.00
2009,07,25,09,09,19.90
2009,07,25,09,10,19.90
2009,07,25,09,11,19.90
2009,07,25,09,12,19.90
2009,07,25,09,13,19.90
2009,07,25,09,14,19.90
2009,07,25,09,15,19.80
2009,07,25,09,16,19.80
2009,07,25,09,17,19.80
2009,07,25,09,18,19.80
2009,07,25,09,19,19.80
2009,07,25,09,20,19.70
2009,07,25,09,21,19.70
2009,07,25,09,22,19.70
2009,07,25,09,23,19.70
2009,07,25,09,24,19.60
2009,07,25,09,25,19.60
2009,07,25,09,26,19.60
2009,07,25,09,27,19.50
2009,07,25,09,28,19.50
2009,07,25,09,29,19.40
2009,07,25,09,30,19.30
2009,07,25,09,31,19.20
2009,07,25,09,32,19.20
2009,07,25,09,33,19.00
2009,07,25,09,34,19.00
2009,07,25,09,35,18.90
2009,07,25,09,36,18.70
2009,07,25,09,37,18.60
2009,07,25,09,38,18.60
2009,07,25,09,39,18.50
2009,07,25,09,40,18.40
2009,07,25,09,41,18.40
2009,07,25,09,42,18.30
2009,07,25,09,43,18.30
2009,07,25,09,44,18.20
2009,07,25,09,45,18.20
2009,07,25,09,46,18.20
2009,07,25,09,47,18.20
2009,07,25,09,48,18.20
2009,07,25,09,49,18.20
2009,07,25,09,50,18.20
2009,07,25,09,51,18.20
2009,07,25,09,52,18.20
2009,07,25,09,53,18.20
2009,07,25,09,54,18.20
2009,07,25,09,55,18.20
2009,07,25,09,56,18.20
2009,07,25,09,57,18.20
2009,07,25,09,58,18.30
2009,07,25,09,59,18.30
2009,07,25,10,00,18.30
2009,07,25,10,01,18.30
2009,07,25,10,02,18.30
2009,07,25,10,03,18.30
2009,07,25,10,04,18.30
2009,07,25,10,05,18.30
2009,07,25,10,06,18.30
2009,07,25,10,07,18.30
2009,07,25,10,08,18.40
2009,07,25,10,09,18.40
2009,07,25,10,10,18.40
2009,07,25,10,11,18.40
2009,07,25,10,12,18.50
2009,07,25,10,13,18.50
2009,07,25,10,14,18.60
2009,07,25,10,15,18.60
2009,07,25,10,16,18.60
2009,07,25,10,17,18.70
2009,07,25,10,18,18.70
2009,07,25,10,19,18.80
2009,07,25,10,20,18.80
2009,07,25,10,21,18.90
2009,07,25,10,22,19.00
2009,07,25,10,23,19.00
2009,07,25,10,24,19.10
2009,07,25,10,25,19.20
2009,07,25,10,26,19.30
2009,07,25,10,27,19.30
2009,07,25,10,28,19.40
2009,07,25,10,29,19.50
2009,07,25,10,30,19.60
2009,07,25,10,31,19.70
2009,07,25,10,32,19.70
2009,07,25,10,33,19.80
2009,07,25,10,34,19.80
2009,07,25,10,35,19.90
2009,07,25,10,36,20.00
2009,07,25,10,37,20.10
2009,07,25,10,38,20.10
2009,07,25,10,39,20.20
2009,07,25,10,40,20.30
2009,07,25,10,41,20.40
2009,07,25,10,42,20.40
2009,07,25,10,43,20.50
2009,07,25,10,44,20.60
2009,07,25,10,45,20.70
2009,07,25,10,46,20.80
2009,07,25,10,47,20.90
2009,07,25,10,48,21.00
2009,07,25,10,49,21.10
2009,07,25,10,50,21.20
2009,07,25,10,51,21.20
2009,07,25,10,52,21.30
2009,07,25,10,53,21.30
2009,07,25,10,54,21.40
2009,07,25,10,55,21.40
2009,07,25,10,56,21.50
2009,07,25,10,57,21.50
2009,07,25,10,58,21.60
2009,07,25,10,59,21.70
2009,07,25,11,00,21.70
2009,07,25,11,01,21.70
2009,07,25,11,02,21.80
2009,07,25,11,03,21.80
2009,07,25,11,04,21.80
2009,07,25,11,05,21.80
2009,07,25,11,06,21.80
2009,07,25,11,07,21.90
2009,07,25,11,08,21.90
2009,07,25,11,09,21.90
2009,07,25,11,10,22.00
2009,07,25,11,11,22.00
2009,07,25,11,12,22.00
2009,07,25,11,13,22.10
2009,07,25,11,14,22.10
2009,07,25,11,15,22.10
2009,07,25,11,16,22.10
2009,07,25,11,17,22.10
2009,07,25,11,18,22.10
2009,07,25,11,19,22.10
2009,07,25,11,20,22.10
2009,07,25,11,21,22.10
2009,07,25,11,22,22.20
2009,07,25,11,23,22.20
2009,07,25,11,24,22.30
2009,07,25,11,25,22.30
2009,07,25,11,26,22.40
2009,07,25,11,27,22.50
2009,07,25,11,28,22.60
2009,07,25,11,29,22.60
2009,07,25,11,30,22.70
2009,07,25,11,31,22.80
2009,07,25,11,32,22.90
2009,07,25,11,33,23.00
2009,07,25,11,34,23.00
2009,07,25,11,35,23.10
2009,07,25,11,36,23.10
2009,07,25,11,37,23.10
2009,07,25,11,38,23.10
2009,07,25,11,39,23.20
2009,07,25,11,40,23.20
2009,07,25,11,41,23.30
2009,07,25,11,42,23.40
2009,07,25,11,43,23.50
2009,07,25,11,44,23.50
2009,07,25,11,45,23.60
2009,07,25,11,46,23.70
2009,07,25,11,47,23.70
2009,07,25,11,48,23.70
2009,07,25,11,49,23.70
2009,07,25,11,50,23.70
2009,07,25,11,51,23.80
2009,07,25,11,52,23.80
2009,07,25,11,53,23.80
2009,07,25,11,54,23.90
2009,07,25,11,55,23.90
2009,07,25,11,56,23.90
2009,07,25,11,57,24.00
2009,07,25,11,58,24.00
2009,07,25,11,59,24.00
2009,07,25,12,00,24.00
2009,07,25,12,01,24.00
2009,07,25,12,02,24.00
2009,07,25,12,03,24.00
2009,07,25,12,04,24.10
2009,07,25,12,05,24.10
2009,07,25,12,06,24.10
2009,07,25,12,07,24.10
2009,07,25,12,08,24.10
2009,07,25,12,09,24.10
2009,07,25,12,10,24.10
2009,07,25,12,11,24.10
2009,07,25,12,12,24.10
2009,07,25,12,13,24.10
2009,07,25,12,14,24.10
2009,07,25,12,15,24.10
2009,07,25,12,16,24.00
2009,07,25,12,17,24.00
2009,07,25,12,18,24.00
2009,07,25,12,19,24.00
2009,07,25,12,20,24.10
2009,07,25,12,21,24.10
2009,07,25,12,22,24.20
2009,07,25,12,23,24.20
2009,07,25,12,24,24.30
2009,07,25,12,25,24.30
2009,07,25,12,26,24.30
2009,07,25,12,27,24.30
2009,07,25,12,28,24.40
2009,07,25,12,29,24.40
2009,07,25,12,30,24.40
2009,07,25,12,31,24.50
2009,07,25,12,32,24.50
2009,07,25,12,33,24.60
2009,07,25,12,34,24.60
2009,07,25,12,35,24.70
2009,07,25,12,36,24.70
2009,07,25,12,37,24.80
2009,07,25,12,38,24.80
2009,07,25,12,39,24.80
2009,07,25,12,40,24.80
2009,07,25,12,41,24.80
2009,07,25,12,42,24.80
2009,07,25,12,43,24.80
2009,07,25,12,44,24.80
2009,07,25,12,45,24.80
2009,07,25,12,46,24.80
2009,07,25,12,47,24.80
2009,07,25,12,48,24.80
2009,07,25,12,49,24.80
2009,07,25,12,50,24.90
2009,07,25,12,51,24.90
2009,07,25,12,52,24.90
2009,07,25,12,53,24.90
2009,07,25,12,54,24.90
2009,07,25,12,55,24.80
2009,07,25,12,56,24.80
2009,07,25,12,57,24.80
2009,07,25,12,58,24.80
2009,07,25,12,59,24.80
2009,07,25,13,00,24.80
2009,07,25,13,01,24.70
2009,07,25,13,02,24.60
2009,07,25,13,03,24.50
2009,07,25,13,04,24.40
2009,07,25,13,05,24.30
2009,07,25,13,06,24.30
2009,07,25,13,07,24.30
2009,07,25,13,08,24.30
2009,07,25,13,09,24.30
2009,07,25,13,10,24.20
2009,07,25,13,11,24.10
2009,07,25,13,12,24.10
2009,07,25,13,13,24.10
2009,07,25,13,14,24.00
2009,07,25,13,15,24.00
2009,07,25,13,16,24.00
2009,07,25,13,17,24.00
2009,07,25,13,18,24.10
2009,07,25,13,19,24.20
2009,07,25,13,20,24.20
2009,07,25,13,21,24.20
2009,07,25,13,22,24.30
2009,07,25,13,23,24.30
2009,07,25,13,24,24.20
2009,07,25,13,25,24.20
2009,07,25,13,26,24.10
2009,07,25,13,27,24.10
2009,07,25,13,28,24.10
2009,07,25,13,29,24.00
2009,07,25,13,30,24.10
2009,07,25,13,31,24.00
2009,07,25,13,32,24.10
2009,07,25,13,33,24.10
2009,07,25,13,34,24.20
2009,07,25,13,35,24.30
2009,07,25,13,36,24.30
2009,07,25,13,37,24.40
2009,07,25,13,38,24.40
2009,07,25,13,39,24.50
2009,07,25,13,40,24.50
2009,07,25,13,41,24.50
2009,07,25,13,42,24.50
2009,07,25,13,43,24.50
2009,07,25,13,44,24.50
2009,07,25,13,45,24.50
2009,07,25,13,46,24.50
2009,07,25,13,47,24.50
2009,07,25,13,48,24.60
2009,07,25,13,49,24.60
2009,07,25,13,50,24.70
2009,07,25,13,51,24.70
2009,07,25,13,52,24.80
2009,07,25,13,53,24.80
2009,07,25,13,54,24.80
2009,07,25,13,55,24.80
2009,07,25,13,56,24.70
2009,07,25,13,57,24.70
2009,07,25,13,58,24.60
2009,07,25,13,59,24.60
2009,07,25,14,00,24.60
2009,07,25,14,01,24.60
2009,07,25,14,02,24.50
2009,07,25,14,03,24.40
2009,07,25,14,04,24.30
2009,07,25,14,05,24.20
2009,07,25,14,06,24.20
2009,07,25,14,07,24.10
2009,07,25,14,08,24.10
2009,07,25,14,09,24.10
2009,07,25,14,10,24.10
2009,07,25,14,11,24.20
2009,07,25,14,12,24.20
2009,07,25,14,13,24.30
2009,07,25,14,14,24.30
2009,07,25,14,15,24.30
2009,07,25,14,16,24.30
2009,07,25,14,17,24.40
2009,07,25,14,18,24.40
2009,07,25,14,19,24.40
2009,07,25,14,20,24.50
2009,07,25,14,21,24.60
2009,07,25,14,22,24.70
2009,07,25,14,23,24.80
2009,07,25,14,24,24.90
2009,07,25,14,25,24.90
2009,07,25,14,26,25.00
2009,07,25,14,27,25.00
2009,07,25,14,28,25.00
2009,07,25,14,29,25.10
2009,07,25,14,30,25.10
2009,07,25,14,31,25.20
2009,07,25,14,32,25.20
2009,07,25,14,33,25.30
2009,07,25,14,34,25.30
2009,07,25,14,35,25.30
2009,07,25,14,36,25.40
2009,07,25,14,37,25.50
2009,07,25,14,38,25.50
2009,07,25,14,39,25.60
2009,07,25,14,40,25.60
2009,07,25,14,41,25.70
2009,07,25,14,42,25.70
2009,07,25,14,43,25.80
2009,07,25,14,44,25.90
2009,07,25,14,45,25.90
2009,07,25,14,46,25.90
2009,07,25,14,47,26.00
2009,07,25,14,48,26.10
2009,07,25,14,49,26.20
2009,07,25,14,50,26.20
2009,07,25,14,51,26.20
2009,07,25,14,52,26.10
2009,07,25,14,53,26.10
2009,07,25,14,54,26.00
2009,07,25,14,55,25.80
2009,07,25,14,56,25.70
2009,07,25,14,57,25.60
2009,07,25,14,58,25.50
2009,07,25,14,59,25.40
2009,07,25,15,00,25.30
2009,07,25,15,01,25.20
2009,07,25,15,02,25.20
2009,07,25,15,03,25.10
2009,07,25,15,04,25.10
2009,07,25,15,05,25.20
2009,07,25,15,06,25.20
2009,07,25,15,07,25.20
2009,07,25,15,08,25.20
2009,07,25,15,09,25.20
2009,07,25,15,10,25.20
2009,07,25,15,11,25.10
2009,07,25,15,12,25.10
2009,07,25,15,13,25.10
2009,07,25,15,14,25.20
2009,07,25,15,15,25.20
2009,07,25,15,16,25.30
2009,07,25,15,17,25.30
2009,07,25,15,18,25.30
2009,07,25,15,19,25.30
2009,07,25,15,20,25.20
2009,07,25,15,21,25.20
2009,07,25,15,22,25.20
2009,07,25,15,23,25.20
2009,07,25,15,24,25.20
2009,07,25,15,25,25.20
2009,07,25,15,26,25.20
2009,07,25,15,27,25.20
2009,07,25,15,28,25.20
2009,07,25,15,29,25.20
2009,07,25,15,30,25.20
2009,07,25,15,31,25.20
2009,07,25,15,32,25.30
2009,07,25,15,33,25.30
2009,07,25,15,34,25.30
2009,07,25,15,35,25.30
2009,07,25,15,36,25.20
2009,07,25,15,37,25.10
2009,07,25,15,38,25.00
2009,07,25,15,39,24.90
2009,07,25,15,40,24.90
2009,07,25,15,41,24.90
2009,07,25,15,42,24.90
2009,07,25,15,43,24.90
2009,07,25,15,44,24.90
2009,07,25,15,45,24.90
2009,07,25,15,46,24.90
2009,07,25,15,47,24.90
2009,07,25,15,48,24.90
2009,07,25,15,49,24.90
2009,07,25,15,50,24.90
2009,07,25,15,51,24.90
2009,07,25,15,52,25.00
2009,07,25,15,53,25.00
2009,07,25,15,54,25.10
2009,07,25,15,55,25.10
2009,07,25,15,56,25.10
2009,07,25,15,57,25.00
2009,07,25,15,58,25.00
2009,07,25,15,59,25.10
2009,07,25,16,00,25.20
2009,07,25,16,01,25.20
2009,07,25,16,02,25.30
2009,07,25,16,03,25.30
2009,07,25,16,04,25.20
2009,07,25,16,05,25.10
2009,07,25,16,06,25.00
2009,07,25,16,07,24.90
2009,07,25,16,08,24.90
2009,07,25,16,09,24.80
2009,07,25,16,10,24.60
2009,07,25,16,11,24.50
2009,07,25,16,12,24.40
2009,07,25,16,13,24.20
2009,07,25,16,14,24.10
2009,07,25,16,15,24.00
2009,07,25,16,16,23.90
2009,07,25,16,17,23.80
2009,07,25,16,18,23.70
2009,07,25,16,19,23.50
2009,07,25,16,20,23.30
2009,07,25,16,21,23.20
2009,07,25,16,22,23.00
2009,07,25,16,23,22.90
2009,07,25,16,24,22.80
2009,07,25,16,25,22.80
2009,07,25,16,26,22.70
2009,07,25,16,27,22.70
2009,07,25,16,28,22.60
2009,07,25,16,29,22.60
2009,07,25,16,30,22.60
2009,07,25,16,31,22.50
2009,07,25,16,32,22.50
2009,07,25,16,33,22.40
2009,07,25,16,34,22.40
2009,07,25,16,35,22.30
2009,07,25,16,36,22.30
2009,07,25,16,37,22.30
2009,07,25,16,38,22.30
2009,07,25,16,39,22.30
2009,07,25,16,40,22.30
2009,07,25,16,41,22.30
2009,07,25,16,42,22.30
2009,07,25,16,43,22.20
2009,07,25,16,44,22.20
2009,07,25,16,45,22.20
2009,07,25,16,46,22.20
2009,07,25,16,47,22.20
2009,07,25,16,48,22.20
2009,07,25,16,49,22.20
2009,07,25,16,50,22.30
2009,07,25,16,51,22.30
2009,07,25,16,52,22.30
2009,07,25,16,53,22.30
2009,07,25,16,54,22.30
2009,07,25,16,55,22.40
2009,07,25,16,56,22.40
2009,07,25,16,57,22.40
2009,07,25,16,58,22.50
2009,07,25,16,59,22.50
2009,07,25,17,00,22.50
2009,07,25,17,01,22.50
2009,07,25,17,02,22.50
2009,07,25,17,03,22.50
2009,07,25,17,04,22.50
2009,07,25,17,05,22.40
2009,07,25,17,06,22.40
2009,07,25,17,07,22.40
2009,07,25,17,08,22.40
2009,07,25,17,09,22.40
2009,07,25,17,10,22.40
2009,07,25,17,11,22.30
2009,07,25,17,12,22.30
2009,07,25,17,13,22.30
2009,07,25,17,14,22.20
2009,07,25,17,15,22.20
2009,07,25,17,16,22.10
2009,07,25,17,17,22.10
2009,07,25,17,18,22.00
2009,07,25,17,19,22.00